• In Hungary
  • List of Countries
  • For 7 days
  • Water Temperature
  • Satellite Maps
  • Weather Map
  • News
  • Weather Widgets
  • user-avatar
    Login

    Hourly Weather Jinotepe

    Today, 25 September, Tuesday

    Time Temperature Precipitation Wind Pressure Humidity
    00:00 +23°C° 0 mm 5 mps 710 mmHg 80%
    01:00 +23°C° 0 mm 5 mps 710 mmHg 80%
    02:00 +23°C° 0 mm 5 mps 709 mmHg 80%
    03:00 +23°C° 0 mm 4 mps 709 mmHg 79%
    04:00 +23°C° 0 mm 4 mps 709 mmHg 80%
    05:00 +23°C° 0 mm 4 mps 709 mmHg 80%
    06:00 +23°C° 0 mm 4 mps 710 mmHg 80%
    07:00 +25°C° 0 mm 4 mps 710 mmHg 74%
    08:00 +27°C° 0 mm 5 mps 711 mmHg 67%
    09:00 +29°C° 0 mm 5 mps 711 mmHg 61%
    10:00 +29°C° 0.5 mm 5 mps 711 mmHg 62%
    11:00 +29°C° 0.5 mm 5 mps 711 mmHg 62%
    12:00 +30°C° 0.5 mm 5 mps 710 mmHg 63%
    13:00 +29°C° 1.1 mm 5 mps 710 mmHg 65%
    14:00 +29°C° 1.1 mm 5 mps 709 mmHg 67%
    15:00 +28°C° 1.1 mm 5 mps 709 mmHg 69%
    16:00 +27°C° 1.4 mm 5 mps 709 mmHg 74%
    17:00 +26°C° 1.4 mm 4 mps 709 mmHg 78%
    18:00 +25°C° 1.4 mm 4 mps 709 mmHg 82%
    19:00 +23°C° 0.4 mm 4 mps 710 mmHg 84%
    20:00 +23°C° 0.4 mm 4 mps 710 mmHg 85%
    21:00 +23°C° 0.4 mm 4 mps 711 mmHg 86%
    22:00 +23°C° 0.1 mm 4 mps 710 mmHg 86%
    23:00 +23°C° 0.1 mm 4 mps 710 mmHg 86%

    Tomorrow, 26 September, Wednesday

    Time Temperature Precipitation Wind Pressure Humidity
    00:00 +24°C° 0.1 mm 3 mps 710 mmHg 86%
    01:00 +22°C° 0 mm 3 mps 710 mmHg 86%
    02:00 +22°C° 0 mm 3 mps 709 mmHg 86%
    03:00 +22°C° 0 mm 3 mps 708 mmHg 86%
    04:00 +22°C° 0 mm 3 mps 709 mmHg 85%
    05:00 +22°C° 0 mm 3 mps 709 mmHg 85%
    06:00 +22°C° 0 mm 3 mps 709 mmHg 85%
    07:00 +25°C° 0 mm 4 mps 710 mmHg 77%
    08:00 +27°C° 0 mm 5 mps 711 mmHg 70%
    09:00 +29°C° 0 mm 5 mps 711 mmHg 62%
    10:00 +30°C° 0.1 mm 5 mps 711 mmHg 59%
    11:00 +32°C° 0.1 mm 5 mps 711 mmHg 56%
    12:00 +33°C° 0.1 mm 5 mps 711 mmHg 53%
    13:00 +32°C° 0.4 mm 5 mps 710 mmHg 55%
    14:00 +30°C° 0.4 mm 5 mps 709 mmHg 57%
    15:00 +30°C° 0.4 mm 5 mps 709 mmHg 60%
    16:00 +29°C° 0.1 mm 5 mps 709 mmHg 64%
    17:00 +27°C° 0.1 mm 5 mps 709 mmHg 69%
    18:00 +26°C° 0.1 mm 4 mps 709 mmHg 74%
    19:00 +25°C° 0 mm 4 mps 709 mmHg 76%
    20:00 +25°C° 0 mm 4 mps 710 mmHg 78%
    21:00 +25°C° 0 mm 4 mps 711 mmHg 79%
    22:00 +23°C° 0 mm 4 mps 710 mmHg 80%
    23:00 +23°C° 0 mm 4 mps 710 mmHg 81%

    Day after tomorrow, 27 September, Thursday

    Time Temperature Precipitation Wind Pressure Humidity
    00:00 +24°C° 0 mm 3 mps 710 mmHg 82%
    01:00 +24°C° 0.1 mm 3 mps 709 mmHg 83%
    02:00 +24°C° 0.1 mm 3 mps 709 mmHg 84%
    03:00 +22°C° 0.1 mm 3 mps 708 mmHg 84%
    04:00 +22°C° 0.1 mm 3 mps 709 mmHg 84%
    05:00 +22°C° 0.1 mm 3 mps 709 mmHg 84%
    06:00 +22°C° 0.1 mm 3 mps 709 mmHg 83%
    07:00 +25°C° 0 mm 4 mps 710 mmHg 77%
    08:00 +27°C° 0 mm 5 mps 711 mmHg 70%
    09:00 +28°C° 0 mm 6 mps 711 mmHg 63%
    10:00 +29°C° 0 mm 6 mps 711 mmHg 59%
    11:00 +30°C° 0 mm 6 mps 711 mmHg 55%
    12:00 +32°C° 0 mm 6 mps 710 mmHg 51%
    13:00 +32°C° 0.2 mm 6 mps 709 mmHg 54%
    14:00 +32°C° 0.2 mm 6 mps 709 mmHg 56%
    15:00 +30°C° 0.2 mm 6 mps 708 mmHg 59%
    16:00 +29°C° 0.7 mm 5 mps 708 mmHg 64%
    17:00 +27°C° 0.7 mm 5 mps 708 mmHg 69%
    18:00 +26°C° 0.7 mm 4 mps 708 mmHg 74%
    19:00 +26°C° 0.1 mm 4 mps 709 mmHg 75%
    20:00 +25°C° 0.1 mm 4 mps 710 mmHg 76%
    21:00 +25°C° 0.1 mm 4 mps 711 mmHg 76%
    22:00 +25°C° 0 mm 4 mps 710 mmHg 77%
    23:00 +23°C° 0 mm 4 mps 710 mmHg 78%

    28 September, Friday

    Time Temperature Precipitation Wind Pressure Humidity
    00:00 +23°C° 0 mm 4 mps 710 mmHg 79%
    01:00 +23°C° 0 mm 4 mps 709 mmHg 79%
    02:00 +24°C° 0 mm 3 mps 709 mmHg 80%
    03:00 +22°C° 0 mm 3 mps 709 mmHg 81%
    04:00 +24°C° 0 mm 3 mps 709 mmHg 81%
    05:00 +24°C° 0 mm 3 mps 709 mmHg 81%
    06:00 +24°C° 0 mm 3 mps 710 mmHg 81%
    07:00 +25°C° 0 mm 4 mps 710 mmHg 74%
    08:00 +27°C° 0 mm 4 mps 711 mmHg 66%
    09:00 +29°C° 0 mm 5 mps 712 mmHg 59%
    10:00 +29°C° 0.2 mm 5 mps 711 mmHg 59%
    11:00 +30°C° 0.2 mm 5 mps 711 mmHg 59%
    12:00 +32°C° 0.2 mm 5 mps 710 mmHg 58%
    13:00 +30°C° 1 mm 5 mps 709 mmHg 62%
    14:00 +29°C° 1 mm 5 mps 709 mmHg 65%
    15:00 +28°C° 1 mm 5 mps 708 mmHg 69%
    16:00 +27°C° 0.6 mm 5 mps 708 mmHg 73%
    17:00 +26°C° 0.6 mm 4 mps 709 mmHg 77%
    18:00 +25°C° 0.6 mm 4 mps 709 mmHg 81%
    19:00 +25°C° 0.1 mm 4 mps 710 mmHg 81%
    20:00 +25°C° 0.1 mm 4 mps 710 mmHg 82%
    21:00 +25°C° 0.1 mm 4 mps 711 mmHg 82%
    22:00 +23°C° 0 mm 4 mps 710 mmHg 82%
    23:00 +23°C° 0 mm 4 mps 710 mmHg 83%

    29 September, Saturday

    Time Temperature Precipitation Wind Pressure Humidity
    00:00 +23°C° 0 mm 4 mps 710 mmHg 83%
    01:00 +24°C° 0.1 mm 3 mps 709 mmHg 83%
    02:00 +24°C° 0.1 mm 3 mps 709 mmHg 83%
    03:00 +24°C° 0.1 mm 3 mps 709 mmHg 83%
    04:00 +24°C° 0 mm 3 mps 709 mmHg 83%
    05:00 +24°C° 0 mm 3 mps 709 mmHg 82%
    06:00 +24°C° 0 mm 3 mps 710 mmHg 82%
    07:00 +25°C° 0 mm 4 mps 710 mmHg 77%
    08:00 +26°C° 0 mm 5 mps 711 mmHg 72%
    09:00 +28°C° 0 mm 5 mps 711 mmHg 67%
    10:00 +29°C° 0.1 mm 5 mps 711 mmHg 63%
    11:00 +30°C° 0.1 mm 5 mps 710 mmHg 59%
    12:00 +32°C° 0.1 mm 5 mps 710 mmHg 55%
    13:00 +32°C° 0.1 mm 5 mps 709 mmHg 57%
    14:00 +30°C° 0.1 mm 5 mps 709 mmHg 58%
    15:00 +30°C° 0.1 mm 5 mps 708 mmHg 59%
    16:00 +29°C° 0.5 mm 5 mps 709 mmHg 65%
    17:00 +27°C° 0.5 mm 5 mps 709 mmHg 71%
    18:00 +26°C° 0.5 mm 5 mps 709 mmHg 77%
    19:00 +25°C° 0.1 mm 5 mps 710 mmHg 78%
    20:00 +25°C° 0.1 mm 5 mps 710 mmHg 79%
    21:00 +25°C° 0.1 mm 5 mps 711 mmHg 80%
    22:00 +25°C° 0 mm 4 mps 710 mmHg 81%
    23:00 +23°C° 0 mm 4 mps 710 mmHg 82%

    30 September, Sunday

    Time Temperature Precipitation Wind Pressure Humidity
    00:00 +23°C° 0 mm 4 mps 710 mmHg 83%
    01:00 +23°C° 0 mm 4 mps 709 mmHg 83%
    02:00 +24°C° 0 mm 3 mps 709 mmHg 84%
    03:00 +24°C° 0 mm 3 mps 709 mmHg 84%
    04:00 +24°C° 0 mm 3 mps 709 mmHg 85%
    05:00 +22°C° 0 mm 3 mps 710 mmHg 85%
    06:00 +22°C° 0 mm 3 mps 710 mmHg 86%
    07:00 +25°C° 0 mm 3 mps 711 mmHg 79%
    08:00 +26°C° 0 mm 3 mps 711 mmHg 72%
    09:00 +28°C° 0 mm 4 mps 712 mmHg 65%
    10:00 +28°C° 0.1 mm 4 mps 711 mmHg 62%
    11:00 +29°C° 0.1 mm 4 mps 711 mmHg 59%
    12:00 +30°C° 0.1 mm 4 mps 710 mmHg 56%
    13:00 +30°C° 0.2 mm 4 mps 710 mmHg 56%
    14:00 +30°C° 0.2 mm 3 mps 709 mmHg 56%
    15:00 +30°C° 0.2 mm 3 mps 709 mmHg 56%
    16:00 +28°C° 0.4 mm 4 mps 709 mmHg 64%
    17:00 +27°C° 0.4 mm 4 mps 709 mmHg 71%
    18:00 +25°C° 0.4 mm 4 mps 710 mmHg 78%
    19:00 +25°C° 0 mm 4 mps 710 mmHg 79%
    20:00 +25°C° 0 mm 4 mps 710 mmHg 79%
    21:00 +23°C° 0 mm 4 mps 711 mmHg 80%
    22:00 +23°C° 0 mm 4 mps 710 mmHg 80%
    23:00 +23°C° 0 mm 4 mps 710 mmHg 80%
    Show more